CONNECTA IOT-2

Last updated on Mon Sep 16 2024 00:02:03 GMT+0000 (Coordinated Universal Time)

1 60522U 24149BG 24258.94837833 .00012471 00000+0 59239-3 0 9996 2 60522 97.4440 334.1044 0008497 59.1089 301.0980 15.19336164 4424
UTC large
Height (km)
Speed (km/s)
/
Latitude / Longitude
Inclination (degrees)
Orbital Period (minutes)
Azimuth
Elevation
Range (km)
Doppler Factor

Next 0 passes for location: London (51.5072 / 0.1276)

Sorry there are no passes over London.